(369839) = 2005 YH215 = 2011 BK97 = 2012 JP19

Discovered at Kitt Peak on 1995-10-17 by Spacewatch.

Orbit

Orbit type: Main Belt

Note: WebGL enabled browser required.

epoch2023-09-13.0
epoch JD2460200.5
perihelion date2022-03-15.77291
perihelion JD2459654.27291
argument of perihelion (°)171.63836
ascending node (°)95.85868
inclination (°)4.95776
eccentricity0.0549660
perihelion distance (AU)2.6521578
Tisserand w.r.t. Jupiter3.3
ΔV w.r.t. Earth (km/sec)10.3
semimajor axis (AU)2.8064152
mean anomaly (°)114.51152
mean daily motion (°/day)0.20964090
aphelion distance (AU)2.961
period (years)4.7
P-vector [x]-0.04312978
P-vector [y]-0.92155484
P-vector [z]-0.38584517
Q-vector [x]0.99536375
Q-vector [y]-0.00640303
Q-vector [z]-0.09596876
absolute magnitude16.61
phase slope0.15
uncertainty0
referenceMPEC 2024-A34
observations used279
oppositions15
arc length (days)11220
first opposition used1993
last opposition used2024
residual rms (arc-secs)0.65
perturbers coarse indicatorM-v
perturbers precise indicator003Ek
first observation date used1993-04-15.0
last observation date used2024-01-03.0
computer nameMPCLINUX
JD of orbit computation2456581.490677
perihelion JD uncertainty (days)6.2076E-04
argument of perihelion uncertainty (°)1.9859E-04
ascending node uncertainty (°)1.4991E-04
inclination uncertainty (°)1.0885E-05
eccentricity uncertainty 1.0290E-07
perihelion distance uncertainty (AU)2.7986E-07
Minimum Orbit Intersection Distances (in AU)
for orbit epoch: 2460200.5, reference: E2024-A34
Mercury2.18852
Venus1.92555
Earth1.63553
Mars1.12614
Jupiter2.07492
Saturn6.09185
Uranus15.6036
Neptune26.939

Observations

284 total observations over interval: 1993 04 15.30817 – 2024 01 03.268631
These data are available for download (format description).

Date (UT) J2000 RA J2000 Dec Magn Location Ref
1993 04 15.30817 13 36 53.02 -02 04 07.2 20.4 V 691 – Steward Observatory, Kitt Peak-Spacewatch MPS 430159
1993 04 15.33976 13 36 51.40 -02 03 59.0   691 – Steward Observatory, Kitt Peak-Spacewatch MPS 430159
1993 04 15.37297 13 36 49.70 -02 03 50.4   691 – Steward Observatory, Kitt Peak-Spacewatch MPS 430159
1995 10 17.39554 03 40 59.39 +13 57 02.1 21.0 V 691 – Steward Observatory, Kitt Peak-Spacewatch MPS 430159
1995 10 17.41689 03 40 58.65 +13 56 58.8   691 – Steward Observatory, Kitt Peak-Spacewatch MPS 430159
1995 10 17.43843 03 40 57.85 +13 56 53.1   691 – Steward Observatory, Kitt Peak-Spacewatch MPS 430159
1995 10 23.44725 03 37 08.81 +13 42 55.3 19.2 V 691 – Steward Observatory, Kitt Peak-Spacewatch MPS 430159
1995 10 23.46976 03 37 07.87 +13 42 57.4 21.7 V 691 – Steward Observatory, Kitt Peak-Spacewatch MPS 429090
1995 10 28.44070 03 33 27.47 +13 30 36.9 20.5 V 691 – Steward Observatory, Kitt Peak-Spacewatch MPS 429090
1995 10 28.46213 03 33 26.42 +13 30 33.8   691 – Steward Observatory, Kitt Peak-Spacewatch MPS 429090
1995 10 28.48352 03 33 25.40 +13 30 30.9   691 – Steward Observatory, Kitt Peak-Spacewatch MPS 429090
1997 02 01.34979 09 24 50.57 +20 12 50.3 21.0 R 696 – Whipple Observatory, Mt. Hopkins MPS 430159
1997 02 01.35373 09 24 50.36 +20 12 51.5 20.8 R 696 – Whipple Observatory, Mt. Hopkins MPS 430159
1997 02 01.35767 09 24 50.16 +20 12 53.0 20.5 R 696 – Whipple Observatory, Mt. Hopkins MPS 430159
2005 11 25.44758 07 25 35.47 +21 56 41.0 21.1 V G96 – Mt. Lemmon Survey MPS 429090
2005 11 25.45435 07 25 35.36 +21 56 41.8 21.4 V G96 – Mt. Lemmon Survey MPS 429090
2005 11 25.46143 07 25 35.18 +21 56 42.5 21.8 V G96 – Mt. Lemmon Survey MPS 429090
2005 11 25.46821 07 25 35.07 +21 56 43.2 21.1 V G96 – Mt. Lemmon Survey MPS 429090
2005 12 29.20366 07 02 47.71 +23 26 14.8   691 – Steward Observatory, Kitt Peak-Spacewatch MPS 159169
2005 12 29.22108 07 02 46.68 +23 26 18.0   691 – Steward Observatory, Kitt Peak-Spacewatch MPS 159169
2005 12 29.23844 07 02 45.70 +23 26 21.1   691 – Steward Observatory, Kitt Peak-Spacewatch MPS 159169
2006 01 05.23246 06 55 58.98 +23 46 14.3 20.5 V 691 – Steward Observatory, Kitt Peak-Spacewatch MPS 159169
2006 01 05.25325 06 55 57.73 +23 46 18.1 20.5 V 691 – Steward Observatory, Kitt Peak-Spacewatch MPS 159169
2006 01 05.27063 06 55 56.68 +23 46 21.0 20.4 V 691 – Steward Observatory, Kitt Peak-Spacewatch MPS 159169
2007 04 26.15134 12 49 18.01 +02 42 51.4 21.0 V G96 – Mt. Lemmon Survey MPS 430159
2007 04 26.15604 12 49 17.83 +02 42 51.5 20.3 V G96 – Mt. Lemmon Survey MPS 430159
2007 04 26.16072 12 49 17.61 +02 42 52.3 20.9 V G96 – Mt. Lemmon Survey MPS 430159
2007 04 26.16542 12 49 17.40 +02 42 53.7 21.1 V G96 – Mt. Lemmon Survey MPS 430159
2011 01 29.27987 08 51 47.62 +21 51 56.7 20.3 V G96 – Mt. Lemmon Survey MPS 384091
2011 01 29.28569 08 51 47.30 +21 51 58.6 20.4 V G96 – Mt. Lemmon Survey MPS 384091
2011 01 29.29144 08 51 46.98 +21 52 00.2 20.3 V G96 – Mt. Lemmon Survey MPS 384091
2011 01 29.29729 08 51 46.65 +21 52 01.9 20.4 V G96 – Mt. Lemmon Survey MPS 384091
2011 01 30.47669 08 50 41.861 +21 57 51.98 21.0 w F51 – Pan-STARRS 1, Haleakala MPS 384091
2011 01 30.49179 08 50 41.005 +21 57 56.30 21.0 w F51 – Pan-STARRS 1, Haleakala MPS 384091
2011 01 30.50808 08 50 40.080 +21 58 01.09 21.1 w F51 – Pan-STARRS 1, Haleakala MPS 384091
2011 01 30.52316 08 50 39.224 +21 58 05.41 21.0 w F51 – Pan-STARRS 1, Haleakala MPS 384091
2012 05 01.34613 15 14 14.49 -11 43 46.6 19.8 V G96 – Mt. Lemmon Survey MPS 425080
2012 05 01.35138 15 14 14.20 -11 43 46.0 20.0 V G96 – Mt. Lemmon Survey MPS 425080
2012 05 01.35664 15 14 13.92 -11 43 45.0 20.1 V G96 – Mt. Lemmon Survey MPS 425080
2012 05 01.36189 15 14 13.66 -11 43 43.9 19.9 V G96 – Mt. Lemmon Survey MPS 425080
2012 05 12.22532 15 04 50.95 -11 17 24.0 19.9 V G96 – Mt. Lemmon Survey MPS 425080
2012 05 12.23223 15 04 50.59 -11 17 23.2 19.9 V G96 – Mt. Lemmon Survey MPS 425080
2012 05 12.23910 15 04 50.19 -11 17 22.2 20.0 V G96 – Mt. Lemmon Survey MPS 425080
2012 05 12.24600 15 04 49.83 -11 17 21.6 19.8 V G96 – Mt. Lemmon Survey MPS 425080
2012 05 24.94297 14 54 19.82 -10 55 43.3 20.1 R J04 – ESA Optical Ground Station, Tenerife MPS 429090
2012 05 24.96438 14 54 18.77 -10 55 41.9 20.5 R J04 – ESA Optical Ground Station, Tenerife MPS 429090
2012 05 24.98580 14 54 17.75 -10 55 40.4 20.3 R J04 – ESA Optical Ground Station, Tenerife MPS 429090
2012 05 25.00721 14 54 16.76 -10 55 39.2 20.4 R J04 – ESA Optical Ground Station, Tenerife MPS 429090
2012 06 14.19749 14 42 51.84 -10 55 19.7 20.8 V G96 – Mt. Lemmon Survey MPS 429090
2012 06 14.20330 14 42 51.69 -10 55 20.1 20.6 V G96 – Mt. Lemmon Survey MPS 429090
2012 06 14.20907 14 42 51.58 -10 55 20.6 20.8 V G96 – Mt. Lemmon Survey MPS 429090
2012 06 14.21491 14 42 51.44 -10 55 20.7 20.8 V G96 – Mt. Lemmon Survey MPS 429090
2013 08 09.44903 23 08 19.317 -12 29 18.35 20.5 w F51 – Pan-STARRS 1, Haleakala MPS 473064
2013 08 09.46327 23 08 18.821 -12 29 23.24 20.4 w F51 – Pan-STARRS 1, Haleakala MPS 473064
2013 08 09.47752 23 08 18.333 -12 29 28.13 20.4 w F51 – Pan-STARRS 1, Haleakala MPS 473064
2013 08 09.49176 23 08 17.835 -12 29 32.97 20.4 w F51 – Pan-STARRS 1, Haleakala MPS 473064
2013 08 26.46963 22 56 42.656 -14 11 00.09 20.1 r F51 – Pan-STARRS 1, Haleakala MPS 474879
2013 08 26.48068 22 56 42.118 -14 11 04.00 20.2 r F51 – Pan-STARRS 1, Haleakala MPS 474879
2013 08 26.49577 22 56 41.378 -14 11 09.35 19.8 i F51 – Pan-STARRS 1, Haleakala MPS 474879
2013 08 26.50812 22 56 40.773 -14 11 13.80 19.9 i F51 – Pan-STARRS 1, Haleakala MPS 474879
2013 08 31.41309 22 52 46.385 -14 39 54.28 20.2 w F51 – Pan-STARRS 1, Haleakala MPS 476147
2013 08 31.42759 22 52 45.655 -14 39 59.22 20.1 w F51 – Pan-STARRS 1, Haleakala MPS 476147
2013 08 31.44205 22 52 44.930 -14 40 04.23 20.2 w F51 – Pan-STARRS 1, Haleakala MPS 476147
2013 08 31.45653 22 52 44.199 -14 40 09.14 20.2 w F51 – Pan-STARRS 1, Haleakala MPS 476147
2013 09 13.32167 22 42 29.51 -15 45 24.4 20.1 V 703 – Catalina Sky Survey MPS 477666
2013 09 13.32838 22 42 29.19 -15 45 24.3 20.1 V 703 – Catalina Sky Survey MPS 477666
2013 09 13.33505 22 42 28.85 -15 45 26.9 19.9 V 703 – Catalina Sky Survey MPS 477666
2013 09 22.39972 22 36 07.713 -16 18 11.60 20.5 i F51 – Pan-STARRS 1, Haleakala MPS 478697
2013 09 22.40787 22 36 07.401 -16 18 13.20 20.6 i F51 – Pan-STARRS 1, Haleakala MPS 478697
2013 10 06.31384 22 29 10.385 -16 42 22.41 20.8 w F51 – Pan-STARRS 1, Haleakala MPS 482280
2013 10 06.34234 22 29 09.735 -16 42 23.25 20.9 w F51 – Pan-STARRS 1, Haleakala MPS 482280
2013 10 06.35659 22 29 09.404 -16 42 23.82 21.0 w F51 – Pan-STARRS 1, Haleakala MPS 482280
2014 11 12.55612 04 56 07.510 +19 03 39.28 20.8 i F51 – Pan-STARRS 1, Haleakala MPS 545607
2014 11 12.56883 04 56 06.908 +19 03 38.77 20.9 i F51 – Pan-STARRS 1, Haleakala MPS 545607
2014 11 12.59434 04 56 05.725 +19 03 38.02 20.9 i F51 – Pan-STARRS 1, Haleakala MPS 545607
2014 11 14.34925 04 54 45.22 +19 02 41.9   691 – Steward Observatory, Kitt Peak-Spacewatch MPS 545607
2014 11 14.36956 04 54 44.23 +19 02 40.8   691 – Steward Observatory, Kitt Peak-Spacewatch MPS 545607
2014 11 14.40255 04 54 42.65 +19 02 40.3   691 – Steward Observatory, Kitt Peak-Spacewatch MPS 545607
2014 11 18.23494 04 51 35.43 +19 00 32.3 20.5 V 691 – Steward Observatory, Kitt Peak-Spacewatch MPS 547550
2014 11 18.25530 04 51 34.38 +19 00 31.5 21.4 V 691 – Steward Observatory, Kitt Peak-Spacewatch MPS 547550
2014 11 18.27567 04 51 33.33 +19 00 31.1 21.1 V 691 – Steward Observatory, Kitt Peak-Spacewatch MPS 547550
2014 11 27.25208 04 43 28.89 +18 55 15.2 20.5 V 691 – Steward Observatory, Kitt Peak-Spacewatch MPS 551464
2014 11 27.27241 04 43 27.73 +18 55 14.1 20.5 V 691 – Steward Observatory, Kitt Peak-Spacewatch MPS 551464
2014 11 27.29274 04 43 26.55 +18 55 13.4 20.6 V 691 – Steward Observatory, Kitt Peak-Spacewatch MPS 551464
2014 11 27.51113 04 43 14.110 +18 55 06.81 20.8 w F51 – Pan-STARRS 1, Haleakala MPS 551464
2014 11 27.52442 04 43 13.342 +18 55 06.27 20.9 w F51 – Pan-STARRS 1, Haleakala MPS 551464
2014 11 27.53766 04 43 12.597 +18 55 05.72 21.0 w F51 – Pan-STARRS 1, Haleakala MPS 551464
